Tracking 23885 objects as of 28-Nov-2021
HD Live streaming from Space Station
objects crossing your sky now

SPACEBEE-101

Track SPACEBEE-101 now!
10-day predictions


NORAD ID: 48884
Int'l Code: 2021-059F
Perigee: 528.4 km
Apogee: 542.5 km
Inclination: 97.5 °
Period: 95.2 minutes
Semi major axis: 6906 km
RCS: Unknown
Launch date: June 30, 2021
Source: United States (US)
Launch site: AIR FORCE EASTERN TEST RANGE (AFETR)
aabbcc
Your satellite tracking list
Your tracking list is empty




NASA's NSSDC Master Catalog

Two Line Element Set (TLE):
1 48884U 21059F   21331.60349548  .00002498  00000-0  14678-3 0  9990
2 48884  97.5322  98.1610 0010217  84.6247 275.6149 15.12577086 23392
Source of the keplerian elements: AFSPC